TimeEST,TemperatureF,Dew PointF,Humidity,Sea Level PressureIn,VisibilityMPH,Wind Direction,Wind SpeedMPH,Gust SpeedMPH,PrecipitationIn,Events,Conditions,WindDirDegrees,DateUTC
12:07 AM,26.6,23.0,86,29.90,1.8,East,5.8,-,0.00,Snow,Light Snow,100,2012-12-29 05:07:00
12:16 AM,26.6,23.0,86,29.89,2.0,ENE,8.1,-,0.00,Snow,Light Snow,70,2012-12-29 05:16:00
12:21 AM,26.6,23.0,86,29.89,1.8,ENE,6.9,-,0.00,Snow,Light Snow,70,2012-12-29 05:21:00
12:48 AM,26.6,24.8,93,29.88,1.2,East,5.8,-,0.01,Snow,Light Snow,80,2012-12-29 05:48:00
12:52 AM,27.0,24.1,89,29.91,1.2,ENE,4.6,-,0.01,Snow,Light Snow,70,2012-12-29 05:52:00
1:19 AM,26.6,24.8,93,29.86,0.8,East,8.1,-,0.02,Snow,Light Snow,90,2012-12-29 06:19:00
1:52 AM,27.0,24.1,89,29.87,1.0,East,8.1,-,0.05,Snow,Light Snow,80,2012-12-29 06:52:00
2:06 AM,26.6,24.8,93,29.84,0.8,East,5.8,-,0.01,Snow,Light Snow,80,2012-12-29 07:06:00
2:31 AM,26.6,24.8,93,29.83,1.0,East,8.1,-,0.03,Snow,Light Snow,80,2012-12-29 07:31:00
2:45 AM,26.6,24.8,93,29.84,2.0,ENE,8.1,-,0.03,Snow,Light Snow,70,2012-12-29 07:45:00
2:52 AM,27.0,25.0,92,29.86,1.8,ENE,5.8,-,0.03,Snow,Light Snow,70,2012-12-29 07:52:00
3:02 AM,26.6,24.8,93,29.84,1.0,ENE,6.9,-,0.01,Snow,Light Snow,70,2012-12-29 08:02:00
3:12 AM,28.4,24.8,86,29.84,0.5,ENE,5.8,-,0.02,Snow,Light Snow,70,2012-12-29 08:12:00
3:23 AM,28.4,24.8,86,29.83,0.8,ENE,6.9,-,0.02,Snow,Light Snow,70,2012-12-29 08:23:00
3:34 AM,28.4,24.8,86,29.82,1.0,ENE,5.8,-,0.03,Snow,Light Snow,70,2012-12-29 08:34:00
3:52 AM,28.0,26.1,92,29.86,1.0,East,5.8,-,0.04,Snow,Light Snow,90,2012-12-29 08:52:00
4:26 AM,28.4,26.6,93,29.81,1.0,ENE,4.6,-,0.01,Snow,Light Snow,60,2012-12-29 09:26:00
4:47 AM,28.4,26.6,93,29.80,1.0,NNE,4.6,-,0.02,Snow,Light Snow,30,2012-12-29 09:47:00
4:52 AM,28.0,26.1,92,29.83,1.0,NE,3.5,-,0.02,Snow,Light Snow,40,2012-12-29 09:52:00
5:00 AM,28.4,26.6,93,29.79,1.0,NE,4.6,-,0.00,Snow,Light Snow,50,2012-12-29 10:00:00
5:12 AM,28.4,26.6,93,29.79,1.0,ENE,4.6,-,0.01,Snow,Light Snow,60,2012-12-29 10:12:00
5:24 AM,28.4,26.6,93,29.79,1.5,NE,4.6,-,0.01,Snow,Light Snow,40,2012-12-29 10:24:00
5:52 AM,28.0,26.1,92,29.81,1.5,North,3.5,-,0.01,Snow,Light Snow,350,2012-12-29 10:52:00
6:08 AM,28.4,26.6,93,29.79,1.2,NNW,4.6,-,0.01,Snow,Light Snow,340,2012-12-29 11:08:00
6:49 AM,28.4,26.6,93,29.79,1.2,North,8.1,-,0.02,Snow,Light Snow,360,2012-12-29 11:49:00
6:52 AM,28.0,26.1,92,29.82,1.2,North,8.1,-,0.02,Snow,Light Snow,360,2012-12-29 11:52:00
7:12 AM,28.4,24.8,86,29.79,1.5,North,6.9,-,0.01,Snow,Light Snow,10,2012-12-29 12:12:00
7:25 AM,28.4,24.8,86,29.79,2.0,North,8.1,-,0.01,Snow,Light Snow,360,2012-12-29 12:25:00
7:32 AM,28.4,24.8,86,29.79,1.5,North,9.2,-,0.01,Snow,Light Snow,10,2012-12-29 12:32:00
7:52 AM,27.0,25.0,92,29.81,1.5,North,8.1,-,0.01,Snow,Light Snow,350,2012-12-29 12:52:00
7:59 AM,26.6,24.8,93,29.78,1.5,North,8.1,-,0.01,Snow,Light Snow,360,2012-12-29 12:59:00
8:12 AM,26.6,24.8,93,29.78,1.0,North,9.2,-,0.01,Snow,Light Snow,360,2012-12-29 13:12:00
8:22 AM,26.6,24.8,93,29.78,1.2,North,8.1,-,0.01,Snow,Light Snow,360,2012-12-29 13:22:00
8:37 AM,26.6,24.8,93,29.78,1.5,North,8.1,-,0.01,Snow,Light Snow,10,2012-12-29 13:37:00
8:52 AM,27.0,24.1,89,29.81,1.5,North,8.1,-,0.01,Snow,Light Snow,10,2012-12-29 13:52:00
9:15 AM,26.6,24.8,93,29.79,1.5,North,5.8,-,0.00,Snow,Light Snow,360,2012-12-29 14:15:00
9:27 AM,26.6,24.8,93,29.80,1.5,North,6.9,-,0.00,Snow,Light Snow,350,2012-12-29 14:27:00
9:42 AM,26.6,24.8,93,29.81,3.0,North,8.1,-,0.00,,Overcast,350,2012-12-29 14:42:00
9:52 AM,26.1,23.0,88,29.84,3.0,North,6.9,-,0.00,,Overcast,350,2012-12-29 14:52:00
10:52 AM,27.0,24.1,89,29.86,6.0,North,5.8,-,N/A,,Overcast,350,2012-12-29 15:52:00
11:52 AM,28.0,24.1,85,29.86,3.0,NNW,6.9,-,0.00,Snow,Light Snow,340,2012-12-29 16:52:00
12:42 PM,28.4,24.8,86,29.83,4.0,NW,5.8,-,0.00,Snow,Light Snow,320,2012-12-29 17:42:00
12:52 PM,28.0,24.1,85,29.85,5.0,NW,6.9,-,0.00,Snow,Light Snow,320,2012-12-29 17:52:00
1:43 PM,28.4,24.8,86,29.83,5.0,NW,6.9,-,0.00,Snow,Light Snow,310,2012-12-29 18:43:00
1:52 PM,28.9,25.0,85,29.86,5.0,NW,6.9,-,0.00,Snow,Light Snow,310,2012-12-29 18:52:00
2:22 PM,28.4,24.8,86,29.84,4.0,WNW,5.8,-,0.00,Snow,Light Snow,300,2012-12-29 19:22:00
2:31 PM,28.4,24.8,86,29.84,5.0,NW,6.9,-,0.00,Snow,Light Snow,310,2012-12-29 19:31:00
2:52 PM,28.9,24.1,82,29.88,4.0,NW,9.2,-,0.00,Snow,Light Snow,320,2012-12-29 19:52:00
3:50 PM,28.4,24.8,86,29.87,2.5,WNW,9.2,-,0.01,Snow,Light Snow,290,2012-12-29 20:50:00
3:52 PM,28.0,24.1,85,29.90,2.5,WNW,8.1,-,0.01,Snow,Light Snow,300,2012-12-29 20:52:00
4:42 PM,28.4,24.8,86,29.90,1.8,WNW,5.8,-,0.00,Snow,Light Snow,300,2012-12-29 21:42:00
4:52 PM,28.0,25.0,88,29.93,1.8,WNW,4.6,-,0.00,Snow,Light Snow,300,2012-12-29 21:52:00
5:02 PM,28.4,24.8,86,29.91,1.5,WNW,4.6,-,0.00,Snow,Light Snow,300,2012-12-29 22:02:00
5:10 PM,28.4,24.8,86,29.91,1.2,WNW,4.6,-,0.01,Snow,Light Snow,290,2012-12-29 22:10:00
5:26 PM,28.4,24.8,86,29.92,1.5,WNW,5.8,-,0.01,Snow,Light Snow,290,2012-12-29 22:26:00
5:44 PM,28.4,24.8,86,29.93,2.0,WNW,5.8,-,0.01,Snow,Light Snow,290,2012-12-29 22:44:00
5:52 PM,28.0,25.0,88,29.96,2.0,West,4.6,-,0.01,Snow,Light Snow,280,2012-12-29 22:52:00
6:14 PM,26.6,24.8,93,29.94,2.0,WNW,5.8,-,0.01,Snow,Light Snow,290,2012-12-29 23:14:00
6:22 PM,26.6,24.8,93,29.94,2.5,WNW,5.8,-,0.01,Snow,Light Snow,300,2012-12-29 23:22:00
6:52 PM,27.0,25.0,92,29.99,2.5,WNW,5.8,-,0.01,Snow,Light Snow,290,2012-12-29 23:52:00
6:59 PM,28.4,24.8,86,29.96,2.5,WNW,5.8,-,0.00,Snow,Light Snow,300,2012-12-29 23:59:00
7:12 PM,26.6,24.8,93,29.96,2.5,WNW,6.9,-,0.00,Snow,Light Snow,290,2012-12-30 00:12:00
7:22 PM,26.6,24.8,93,29.97,3.0,West,8.1,-,0.00,Snow,Light Snow,280,2012-12-30 00:22:00
7:52 PM,26.6,24.8,93,29.98,5.0,WNW,6.9,-,N/A,Snow,Light Snow,290,2012-12-30 00:52:00
8:52 PM,26.1,21.9,84,30.03,10.0,WNW,10.4,-,0.00,,Overcast,290,2012-12-30 01:52:00
9:07 PM,26.6,21.2,80,30.01,10.0,WNW,8.1,-,N/A,,Overcast,290,2012-12-30 02:07:00
9:39 PM,24.8,21.2,86,30.02,10.0,West,8.1,-,N/A,,Overcast,280,2012-12-30 02:39:00
9:52 PM,25.0,21.9,88,30.06,10.0,West,9.2,-,N/A,,Overcast,280,2012-12-30 02:52:00
10:52 PM,25.0,21.9,88,30.08,9.0,West,10.4,-,N/A,,Overcast,270,2012-12-30 03:52:00
11:52 PM,23.0,19.9,88,30.11,5.0,West,10.4,-,N/A,,Clear,270,2012-12-30 04:52:00